TimeEDT,TemperatureF,Dew PointF,Humidity,Sea Level PressureIn,VisibilityMPH,Wind Direction,Wind SpeedMPH,Gust SpeedMPH,PrecipitationIn,Events,Conditions,WindDirDegrees,DateUTC
12:10 AM,60.8,59.0,94,30.06,3.0,Calm,Calm,-,N/A,,Clear,0,2013-08-22 04:10:00
12:29 AM,60.8,60.8,100,30.06,1.5,Calm,Calm,-,N/A,,Clear,0,2013-08-22 04:29:00
12:38 AM,60.8,60.8,100,30.07,0.8,Calm,Calm,-,N/A,,Clear,0,2013-08-22 04:38:00
12:42 AM,60.8,59.0,94,30.06,2.0,Calm,Calm,-,N/A,,Clear,0,2013-08-22 04:42:00
12:50 AM,60.8,59.0,94,30.07,3.0,Calm,Calm,-,N/A,,Clear,0,2013-08-22 04:50:00
12:54 AM,60.1,57.9,93,30.05,2.5,Calm,Calm,-,N/A,,Clear,0,2013-08-22 04:54:00
1:19 AM,60.8,59.0,94,30.07,1.0,Calm,Calm,-,N/A,,Clear,0,2013-08-22 05:19:00
1:26 AM,60.8,57.2,88,30.07,3.0,SSE,3.5,-,N/A,,Clear,160,2013-08-22 05:26:00
1:42 AM,60.8,57.2,88,30.07,2.5,Calm,Calm,-,N/A,,Clear,0,2013-08-22 05:42:00
1:54 AM,59.0,57.9,96,30.05,2.5,Calm,Calm,-,N/A,,Clear,0,2013-08-22 05:54:00
2:02 AM,60.8,57.2,88,30.06,3.0,Calm,Calm,-,N/A,,Clear,0,2013-08-22 06:02:00
2:46 AM,60.8,57.2,88,30.06,2.5,Calm,Calm,-,N/A,,Clear,0,2013-08-22 06:46:00
2:54 AM,60.1,57.9,93,30.06,2.5,Calm,Calm,-,N/A,,Clear,0,2013-08-22 06:54:00
3:05 AM,59.0,57.2,94,30.06,1.2,Calm,Calm,-,N/A,,Clear,0,2013-08-22 07:05:00
3:19 AM,60.8,57.2,88,30.06,2.0,Calm,Calm,-,N/A,,Clear,0,2013-08-22 07:19:00
3:54 AM,59.0,57.0,93,30.04,2.5,Calm,Calm,-,N/A,,Clear,0,2013-08-22 07:54:00
4:06 AM,59.0,57.2,94,30.05,1.2,Calm,Calm,-,N/A,,Clear,0,2013-08-22 08:06:00
4:49 AM,57.2,57.2,100,30.03,3.0,Calm,Calm,-,N/A,,Clear,0,2013-08-22 08:49:00
4:52 AM,57.2,57.2,100,30.03,1.8,Calm,Calm,-,N/A,,Clear,0,2013-08-22 08:52:00
4:54 AM,59.0,57.0,93,30.01,1.5,Calm,Calm,-,N/A,,Clear,0,2013-08-22 08:54:00
5:32 AM,57.2,55.4,94,30.01,2.5,South,3.5,-,N/A,,Clear,190,2013-08-22 09:32:00
5:46 AM,57.2,55.4,94,30.01,3.0,North,3.5,-,N/A,,Clear,350,2013-08-22 09:46:00
5:54 AM,57.9,55.9,93,29.99,2.5,Calm,Calm,-,N/A,,Clear,0,2013-08-22 09:54:00
6:07 AM,59.0,57.2,94,30.01,1.2,Calm,Calm,-,N/A,,Clear,0,2013-08-22 10:07:00
6:27 AM,57.2,57.2,100,30.01,0.8,Calm,Calm,-,N/A,,Clear,0,2013-08-22 10:27:00
6:46 AM,57.2,57.2,100,30.01,2.0,Calm,Calm,-,N/A,,Clear,0,2013-08-22 10:46:00
6:54 AM,57.9,57.0,97,30.00,2.0,Calm,Calm,-,N/A,,Clear,0,2013-08-22 10:54:00
7:27 AM,62.6,60.8,94,30.02,3.0,Calm,Calm,-,N/A,,Clear,0,2013-08-22 11:27:00
7:54 AM,64.9,61.0,87,30.01,4.0,Calm,Calm,-,N/A,,Clear,0,2013-08-22 11:54:00
8:54 AM,70.0,64.0,81,30.01,7.0,Calm,Calm,-,N/A,,Clear,0,2013-08-22 12:54:00
9:54 AM,73.9,64.9,73,30.00,9.0,Calm,Calm,-,N/A,,Scattered Clouds,0,2013-08-22 13:54:00
10:54 AM,79.0,64.0,60,29.99,10.0,Calm,Calm,-,N/A,,Clear,0,2013-08-22 14:54:00
11:54 AM,81.0,64.9,58,29.98,10.0,Variable,3.5,-,N/A,,Clear,0,2013-08-22 15:54:00
12:54 PM,82.0,64.0,54,29.96,10.0,Variable,4.6,-,N/A,,Scattered Clouds,0,2013-08-22 16:54:00
1:54 PM,82.0,62.1,51,29.92,10.0,SSW,5.8,-,N/A,,Clear,200,2013-08-22 17:54:00
2:54 PM,84.0,61.0,46,29.90,10.0,West,8.1,-,N/A,,Clear,270,2013-08-22 18:54:00
3:54 PM,82.9,62.1,49,29.88,10.0,SW,6.9,-,N/A,,Partly Cloudy,220,2013-08-22 19:54:00
4:54 PM,82.0,64.0,54,29.85,10.0,WSW,4.6,-,N/A,,Clear,250,2013-08-22 20:54:00
5:54 PM,81.0,64.9,58,29.85,10.0,WSW,4.6,-,N/A,,Clear,240,2013-08-22 21:54:00
6:54 PM,78.1,66.9,68,29.85,9.0,SW,3.5,-,N/A,,Clear,230,2013-08-22 22:54:00
7:54 PM,75.9,66.0,71,29.84,10.0,SW,5.8,-,N/A,,Partly Cloudy,220,2013-08-22 23:54:00
8:39 PM,75.2,64.4,69,29.87,10.0,NW,13.8,24.2,N/A,Thunderstorm,Scattered Clouds,310,2013-08-23 00:39:00
8:54 PM,69.1,64.0,84,29.88,1.8,WSW,8.1,26.5,0.14,Rain-Thunderstorm,Heavy Thunderstorms and Rain,250,2013-08-23 00:54:00
9:04 PM,66.2,64.4,94,29.89,1.5,Calm,Calm,-,0.12,Rain-Thunderstorm,Light Thunderstorms and Rain,0,2013-08-23 01:04:00
9:08 PM,66.2,62.6,88,29.90,3.0,Calm,Calm,-,0.13,Rain-Thunderstorm,Light Thunderstorms and Rain,0,2013-08-23 01:08:00
9:22 PM,66.2,64.4,94,29.91,8.0,Calm,Calm,-,0.13,Thunderstorm,Overcast,0,2013-08-23 01:22:00
9:42 PM,66.2,64.4,94,29.90,7.0,Calm,Calm,-,0.13,,Mostly Cloudy,0,2013-08-23 01:42:00
9:54 PM,64.9,63.0,93,29.88,5.0,Calm,Calm,-,0.13,,Scattered Clouds,0,2013-08-23 01:54:00
10:52 PM,66.2,64.4,94,29.90,7.0,Calm,Calm,-,N/A,,Overcast,0,2013-08-23 02:52:00
10:54 PM,66.0,64.0,93,29.88,7.0,Calm,Calm,-,N/A,,Overcast,0,2013-08-23 02:54:00
11:33 PM,66.2,64.4,94,29.91,6.0,SSW,3.5,-,N/A,,Overcast,200,2013-08-23 03:33:00
11:54 PM,66.0,64.0,93,29.89,7.0,Calm,Calm,-,N/A,,Overcast,0,2013-08-23 03:54:00